TimeCST,TemperatureF,Dew PointF,Humidity,Sea Level PressureIn,VisibilityMPH,Wind Direction,Wind SpeedMPH,Gust SpeedMPH,PrecipitationIn,Events,Conditions,WindDirDegrees,DateUTC
12:53 AM,48.0,37.0,66,30.19,10.0,Calm,Calm,-,N/A,,Partly Cloudy,0,2013-01-09 06:53:00
1:53 AM,46.9,37.9,71,30.20,10.0,Calm,Calm,-,N/A,,Clear,0,2013-01-09 07:53:00
2:53 AM,46.9,41.0,80,30.22,10.0,WNW,3.5,-,N/A,,Clear,300,2013-01-09 08:53:00
3:53 AM,44.1,39.0,82,30.25,10.0,NNW,4.6,-,N/A,,Clear,340,2013-01-09 09:53:00
4:53 AM,39.9,37.0,89,30.26,8.0,WNW,3.5,-,N/A,,Clear,290,2013-01-09 10:53:00
5:53 AM,37.0,35.1,93,30.28,3.0,Calm,Calm,-,N/A,,Clear,0,2013-01-09 11:53:00
6:30 AM,35.6,33.8,93,30.33,2.0,Calm,Calm,-,N/A,,Clear,0,2013-01-09 12:30:00
6:41 AM,35.6,32.0,87,30.33,3.0,Calm,Calm,-,N/A,,Clear,0,2013-01-09 12:41:00
6:44 AM,33.8,32.0,93,30.33,1.8,Calm,Calm,-,N/A,,Clear,0,2013-01-09 12:44:00
6:47 AM,33.8,32.0,93,30.34,0.8,Calm,Calm,-,N/A,,Mist,0,2013-01-09 12:47:00
6:53 AM,33.1,30.9,92,30.32,0.2,Calm,Calm,-,N/A,Fog,Fog,0,2013-01-09 12:53:00
7:08 AM,33.8,30.2,87,30.35,0.5,Calm,Calm,-,N/A,Fog,Fog,0,2013-01-09 13:08:00
7:25 AM,33.8,30.2,87,30.36,0.2,Calm,Calm,-,N/A,Fog,Fog,0,2013-01-09 13:25:00
7:48 AM,33.8,30.2,87,30.37,0.2,Calm,Calm,-,N/A,Fog,Fog,0,2013-01-09 13:48:00
7:53 AM,33.1,30.0,89,30.35,0.2,Calm,Calm,-,N/A,Fog,Fog,0,2013-01-09 13:53:00
8:18 AM,32.0,30.2,93,30.39,0.5,Calm,Calm,-,N/A,Fog,Fog,0,2013-01-09 14:18:00
8:22 AM,33.8,32.0,93,30.39,0.2,Calm,Calm,-,N/A,Fog,Fog,0,2013-01-09 14:22:00
8:53 AM,33.1,32.0,96,30.38,0.5,Calm,Calm,-,N/A,Fog,Fog,0,2013-01-09 14:53:00
8:55 AM,33.8,32.0,93,30.40,1.0,Calm,Calm,-,N/A,,Clear,0,2013-01-09 14:55:00
9:10 AM,35.6,33.8,93,30.41,6.0,Calm,Calm,-,N/A,,Clear,0,2013-01-09 15:10:00
9:53 AM,39.0,37.0,93,30.39,6.0,Calm,Calm,-,N/A,,Clear,0,2013-01-09 15:53:00
10:53 AM,45.0,37.0,74,30.40,10.0,Calm,Calm,-,N/A,,Clear,0,2013-01-09 16:53:00
11:53 AM,50.0,36.0,59,30.38,10.0,Calm,Calm,-,N/A,,Clear,0,2013-01-09 17:53:00
12:53 PM,55.0,37.0,51,30.35,10.0,Variable,3.5,-,N/A,,Clear,0,2013-01-09 18:53:00
1:53 PM,59.0,32.0,36,30.36,10.0,ENE,6.9,-,N/A,,Clear,60,2013-01-09 19:53:00
2:53 PM,57.9,26.1,30,30.38,10.0,North,8.1,18.4,N/A,,Clear,10,2013-01-09 20:53:00
3:53 PM,57.0,27.0,32,30.39,10.0,NE,5.8,-,N/A,,Clear,40,2013-01-09 21:53:00
4:53 PM,55.0,27.0,34,30.38,10.0,NNE,4.6,-,N/A,,Clear,30,2013-01-09 22:53:00
5:53 PM,52.0,28.9,41,30.40,10.0,NE,4.6,-,N/A,,Clear,50,2013-01-09 23:53:00
6:53 PM,45.0,28.9,53,30.42,10.0,Calm,Calm,-,N/A,,Clear,0,2013-01-10 00:53:00
7:53 PM,50.0,30.0,46,30.41,10.0,ENE,6.9,-,N/A,,Clear,60,2013-01-10 01:53:00
8:53 PM,39.9,30.0,68,30.43,10.0,ESE,4.6,-,N/A,,Clear,120,2013-01-10 02:53:00
9:53 PM,41.0,28.9,62,30.42,10.0,Variable,4.6,-,N/A,,Clear,0,2013-01-10 03:53:00
10:53 PM,44.1,28.0,53,30.40,10.0,East,4.6,-,N/A,,Clear,90,2013-01-10 04:53:00
11:53 PM,39.0,28.0,65,30.39,10.0,SE,8.1,-,N/A,,Clear,130,2013-01-10 05:53:00